User: anonymous   Login
Location: ???? ?????
(30.0052°N, 31.2891°E)
Time: 06:27:36
(UTC+00:00)
Language:

Cosmos 1271 Rocket - Orbit

View from above orbital plane
View from above orbital plane
View from above satellite
View from above satellite

Ground track
Ground track

The orbit data is extracted from the following two-line orbital elements,

1 12465U 81046B   22228.83814041  .00002294  00000-0  11528-3 0  9999
2 12465  81.2433  14.4804 0033738 129.2459 231.1773 15.16346339253047
Epoch (UTC): 16 August 2022 20:06:55
Eccentricity: 0.0033738
inclination: 81.2433°
perigee height: 493 km
apogee height: 540 km
right ascension of ascending node: 14.4804°
argument of perigee: 129.2459°
revolutions per day: 15.16346339
mean anomaly at epoch: 231.1773°
orbit number at epoch: 25304

The dashed part of the orbit path shows where the satellite is in the earth's shadow,  

DLR